パンスターズ彗星

P/2024 R3 ( PanSTARRS )

English version
Home page
Updated on March 23, 2025

---------------------------------------------------------------------

・ プロフィール

発見日 2024年9月8日
発見光度 21.1等
発見者 Pan-STARRS 2 telescope (Haleakala)

・ 軌道要素

Epoch 2024 Oct. 17.0 TT = JDT 2460600.5
T 2024 May 7.74355 TT                                   Pike
q   2.3450247            (2000.0)            P               Q
n   0.17238110     Peri.  309.09968     +0.93909098     +0.31406380
a   3.1974932      Node    33.28124     -0.17964489     +0.79474832
e   0.2666053      Incl.   14.73162     -0.29297755     +0.51936407
P   5.72
From 82 observations 2024 Sept. 8-Dec. 6, mean residual 0".8.

・ 光度変化

        m1 = 14.5 + 5 logΔ + 10.0 log r

---------------------------------------------------------------------

軌道要素はM.P.E.C. 2024-Y127に掲載されたものです。
光度グラフはComet for Windowsで作成したものです。

---------------------------------------------------------------------

Copyright(C) Seiichi Yoshida (comet@aerith.net). All rights reserved.